Language: 


Des rapports , des résumés tant et plus, au choix de chacun....


Données Historiques de Météogheer
Journalier Rapport pour Mars 3, 2018 Unitée:  Métrique    Impériale   Les deux
Suivant Jour »
Journalier Hebdomadaire Mensuel Annuel Sur mesure
  Max: Min: Moyenne:
Température: 9.5 °C -4.0 °C 2.1 °C
Point de rosée: 3.0 °C -5.0 °C -0.5 °C
Humidité: 98% 0% 84%
Vent: 14.0km/h 0.0km/h 4.3km/h
Rafales: 14.0km/h - -
Vent- - East
Pression: 994.1 hPa 0.0 hPa -
Pluie: 0.0 mm    
Historical Graphs
 
 
Données tabulaires pour Mars 3, 2018
Heure Température Point de rosée Pression Vent Vent Rafales Humidité Pluie Taux (Horaire) Conditions
00:04 -0.4 °C -2.0 °C 993.1 hPa Calm     91% 0.0 mm
00:09 -0.4 °C -2.0 °C 993.1 hPa Calm     91% 0.0 mm
00:14 -0.4 °C -2.0 °C 993.1 hPa Calm     91% 0.0 mm
00:19 -0.5 °C -3.0 °C 993.1 hPa ENE 5.0 km/h 5.5 km/h 91% 0.0 mm
00:24 -0.5 °C -3.0 °C 993.1 hPa Calm   5.8 km/h 91% 0.0 mm
00:29 -0.6 °C -3.0 °C 992.1 hPa Calm   5.8 km/h 91% 0.0 mm
00:35 -0.6 °C -3.0 °C 992.1 hPa Calm   1.8 km/h 91% 0.0 mm
00:40 -0.6 °C -3.0 °C 992.1 hPa Calm   6.1 km/h 91% 0.0 mm
00:45 -0.6 °C -3.0 °C 993.1 hPa Calm   6.1 km/h 91% 0.0 mm
00:50 -0.6 °C -3.0 °C 993.1 hPa Calm   4.7 km/h 91% 0.0 mm
00:55 -0.6 °C -3.0 °C 993.1 hPa Calm   3.2 km/h 92% 0.0 mm
01:00 -0.6 °C -3.0 °C 993.1 hPa NE 5.5 km/h 5.8 km/h 92% 0.0 mm
01:05 -0.6 °C -3.0 °C 993.1 hPa NE 5.8 km/h 6.9 km/h 92% 0.0 mm
01:10 -0.6 °C -3.0 °C 993.1 hPa NE 6.4 km/h 6.9 km/h 92% 0.0 mm
01:15 -0.6 °C -2.0 °C 993.1 hPa Calm   9.3 km/h 93% 0.0 mm
01:20 -0.6 °C -2.0 °C 993.1 hPa Calm   9.3 km/h 93% 0.0 mm
01:25 -0.6 °C -2.0 °C 993.1 hPa Calm   6.1 km/h 93% 0.0 mm
01:30 -0.5 °C -2.0 °C 992.1 hPa Calm   6.9 km/h 93% 0.0 mm
01:35 -0.5 °C -2.0 °C 992.1 hPa ENE 4.7 km/h 6.9 km/h 94% 0.0 mm
01:40 -0.5 °C -2.0 °C 992.1 hPa Calm   5.0 km/h 94% 0.0 mm
01:45 -0.5 °C -2.0 °C 992.1 hPa Calm   6.4 km/h 94% 0.0 mm
01:50 -0.5 °C -2.0 °C 992.1 hPa Calm   6.4 km/h 94% 0.0 mm
01:55 -0.5 °C -2.0 °C 992.1 hPa Calm   5.8 km/h 94% 0.0 mm
02:01 -0.5 °C -2.0 °C 992.1 hPa Calm   6.1 km/h 94% 0.0 mm
02:06 -0.6 °C -2.0 °C 992.1 hPa Calm   6.1 km/h 94% 0.0 mm
02:11 -0.6 °C -2.0 °C 992.1 hPa Calm   4.3 km/h 94% 0.0 mm
02:16 -0.7 °C -2.0 °C 993.1 hPa Calm   4.7 km/h 94% 0.0 mm
02:21 -0.7 °C -2.0 °C 993.1 hPa NE 6.4 km/h 6.4 km/h 94% 0.0 mm
02:26 -0.8 °C -3.0 °C 993.1 hPa Calm   6.4 km/h 94% 0.0 mm
02:31 -0.9 °C -3.0 °C 993.1 hPa Calm   6.4 km/h 94% 0.0 mm
02:36 -1.0 °C -3.0 °C 993.1 hPa NE 6.4 km/h 6.4 km/h 94% 0.0 mm
02:41 -1.1 °C -3.0 °C 993.1 hPa NE 6.1 km/h 6.4 km/h 94% 0.0 mm
02:46 -1.1 °C -3.0 °C 993.1 hPa Calm   6.4 km/h 94% 0.0 mm
02:51 -1.3 °C -3.0 °C 993.1 hPa NE 6.4 km/h 6.4 km/h 94% 0.0 mm
02:56 -1.4 °C -3.0 °C 993.1 hPa Calm   7.9 km/h 94% 0.0 mm
03:01 -1.4 °C -3.0 °C 993.1 hPa Calm   7.9 km/h 94% 0.0 mm
03:06 -1.5 °C -3.0 °C 993.1 hPa Calm   3.2 km/h 94% 0.0 mm
03:11 -1.5 °C -3.0 °C 993.1 hPa Calm   5.0 km/h 94% 0.0 mm
03:16 -1.5 °C -3.0 °C 993.1 hPa Calm   5.0 km/h 94% 0.0 mm
03:21 -1.5 °C -3.0 °C 993.1 hPa Calm   2.6 km/h 94% 0.0 mm
03:26 -1.5 °C -3.0 °C 993.1 hPa NE 6.1 km/h 6.9 km/h 94% 0.0 mm
03:31 -1.5 °C -3.0 °C 993.1 hPa Calm   7.9 km/h 95% 0.0 mm
03:36 -1.6 °C -3.0 °C 993.1 hPa Calm   7.9 km/h 95% 0.0 mm
03:41 -1.6 °C -3.0 °C 993.1 hPa Calm   5.5 km/h 95% 0.0 mm
03:46 -1.6 °C -3.0 °C 993.1 hPa Calm   2.1 km/h 95% 0.0 mm
03:51 -1.7 °C -3.0 °C 993.1 hPa Calm     95% 0.0 mm
03:56 -1.6 °C -3.0 °C 993.1 hPa Calm     95% 0.0 mm
04:01 -1.6 °C -3.0 °C 992.1 hPa Calm   5.0 km/h 95% 0.0 mm
04:06 -1.6 °C -3.0 °C 992.1 hPa Calm   5.0 km/h 95% 0.0 mm
04:11 -1.7 °C -3.0 °C 992.1 hPa Calm     94% 0.0 mm
04:16 -1.7 °C -3.0 °C 992.1 hPa Calm     94% 0.0 mm
04:21 -1.7 °C -3.0 °C 992.1 hPa Calm   5.5 km/h 94% 0.0 mm
04:26 -1.8 °C -3.0 °C 992.1 hPa Calm   6.1 km/h 94% 0.0 mm
04:31 -1.8 °C -3.0 °C 992.1 hPa Calm   8.7 km/h 94% 0.0 mm
04:36 -1.8 °C -3.0 °C 992.1 hPa NE 8.7 km/h 9.0 km/h 95% 0.0 mm
04:41 -1.8 °C -3.0 °C 992.1 hPa NNE 5.0 km/h 9.0 km/h 95% 0.0 mm
04:46 -1.9 °C -3.0 °C 991.1 hPa NE 5.5 km/h 8.7 km/h 95% 0.0 mm
04:51 -2.0 °C -3.0 °C 991.1 hPa NE 5.0 km/h 7.2 km/h 95% 0.0 mm
04:57 -2.1 °C -3.0 °C 991.1 hPa Calm   6.1 km/h 95% 0.0 mm
05:02 -2.3 °C -4.0 °C 991.1 hPa NNE 5.8 km/h 5.8 km/h 95% 0.0 mm
05:07 -2.6 °C -4.0 °C 991.1 hPa Calm   6.1 km/h 94% 0.0 mm
05:12 -2.8 °C -5.0 °C 991.1 hPa Calm   6.1 km/h 93% 0.0 mm
05:17 -2.9 °C -5.0 °C 991.1 hPa NNE 6.1 km/h 6.4 km/h 93% 0.0 mm
05:22 -3.0 °C -5.0 °C 991.1 hPa North 4.3 km/h 6.4 km/h 94% 0.0 mm
05:27 -3.2 °C -5.0 °C 991.1 hPa NNE 4.0 km/h 6.4 km/h 94% 0.0 mm
05:32 -3.4 °C -5.0 °C 991.1 hPa Calm   6.9 km/h 93% 0.0 mm
05:37 -3.5 °C -5.0 °C 991.1 hPa Calm   6.9 km/h 93% 0.0 mm
05:42 -3.6 °C -5.0 °C 991.1 hPa NE 6.9 km/h 7.2 km/h 93% 0.0 mm
05:47 -3.6 °C -5.0 °C 990.1 hPa NNE 5.8 km/h 7.6 km/h 94% 0.0 mm
05:52 -3.6 °C -5.0 °C 990.1 hPa Calm   7.9 km/h 94% 0.0 mm
05:57 -3.7 °C -5.0 °C 990.1 hPa NNE 6.1 km/h 7.9 km/h 94% 0.0 mm
06:02 -3.7 °C -5.0 °C 991.1 hPa NE 5.5 km/h 7.9 km/h 94% 0.0 mm
06:07 -3.7 °C -5.0 °C 991.1 hPa NE 6.1 km/h 7.6 km/h 94% 0.0 mm
06:08 -3.7 °C -5.0 °C 991.1 hPa NNE 4.0 km/h 7.6 km/h 94% 0.0 mm
06:13 -3.7 °C -5.0 °C 991.1 hPa NE 6.1 km/h 7.6 km/h 94% 0.0 mm
06:18 -3.7 °C -5.0 °C 991.1 hPa NE 6.1 km/h 6.4 km/h 94% 0.0 mm
06:23 -3.7 °C -5.0 °C 991.1 hPa Calm   7.6 km/h 95% 0.0 mm
06:28 -3.7 °C -5.0 °C 991.1 hPa Calm   7.6 km/h 95% 0.0 mm
06:33 -3.7 °C -5.0 °C 991.1 hPa NE 4.0 km/h 7.2 km/h 95% 0.0 mm
06:38 -3.9 °C -5.0 °C 991.1 hPa North 3.5 km/h 7.6 km/h 94% 0.0 mm
06:43 -3.9 °C -5.0 °C 991.1 hPa NNE 5.0 km/h 7.6 km/h 94% 0.0 mm
06:48 -4.0 °C -5.0 °C 991.1 hPa Calm   6.4 km/h 95% 0.0 mm
06:53 -4.0 °C -5.0 °C 991.1 hPa Calm   6.4 km/h 95% 0.0 mm
06:58 -4.0 °C -5.0 °C 991.1 hPa NNE 4.3 km/h 5.5 km/h 95% 0.0 mm
07:03 -4.0 °C -5.0 °C 991.1 hPa North 4.0 km/h 6.1 km/h 95% 0.0 mm
07:09 -4.0 °C -5.0 °C 991.1 hPa NNE 4.3 km/h 6.1 km/h 95% 0.0 mm
07:14 -3.9 °C -5.0 °C 991.1 hPa North 4.0 km/h 6.4 km/h 95% 0.0 mm
07:19 -3.9 °C -5.0 °C 991.1 hPa NNE 6.1 km/h 6.9 km/h 95% 0.0 mm
07:24 -3.9 °C -5.0 °C 991.1 hPa NE 4.3 km/h 7.6 km/h 95% 0.0 mm
07:29 -3.9 °C -5.0 °C 991.1 hPa North 6.4 km/h 7.9 km/h 95% 0.0 mm
07:34 -3.9 °C -5.0 °C 991.1 hPa NNE 4.7 km/h 7.9 km/h 95% 0.0 mm
07:39 -3.9 °C -5.0 °C 991.1 hPa North 2.6 km/h 6.9 km/h 95% 0.0 mm
07:44 -4.0 °C -5.0 °C 991.1 hPa NNE 3.5 km/h 6.4 km/h 96% 0.0 mm
07:49 -4.0 °C -5.0 °C 991.1 hPa Calm   6.4 km/h 95% 0.0 mm
07:54 -4.0 °C -5.0 °C 991.1 hPa North 5.5 km/h 6.1 km/h 95% 0.0 mm
07:59 -4.0 °C -5.0 °C 992.1 hPa NNE 4.3 km/h 6.9 km/h 96% 0.0 mm
08:04 -4.0 °C -5.0 °C 992.1 hPa Calm   6.9 km/h 96% 0.0 mm
08:09 -4.0 °C -5.0 °C 992.1 hPa NE 4.3 km/h 5.8 km/h 96% 0.0 mm
08:14 -3.9 °C -5.0 °C 993.1 hPa NNE 1.4 km/h 6.1 km/h 96% 0.0 mm
08:19 -3.8 °C -5.0 °C 993.1 hPa NE 1.4 km/h 6.1 km/h 96% 0.0 mm
08:24 -3.6 °C -5.0 °C 993.1 hPa North 1.4 km/h 6.4 km/h 96% 0.0 mm
08:29 -3.4 °C -4.0 °C 993.1 hPa NNE 3.5 km/h 6.9 km/h 97% 0.0 mm
08:34 -3.1 °C -4.0 °C 993.1 hPa Calm   6.9 km/h 97% 0.0 mm
08:39 -2.9 °C -4.0 °C 993.1 hPa North 5.8 km/h 6.9 km/h 97% 0.0 mm
08:44 -2.8 °C -4.0 °C 993.1 hPa North 5.5 km/h 8.7 km/h 97% 0.0 mm
08:49 -2.6 °C -4.0 °C 993.1 hPa NE 5.0 km/h 8.7 km/h 97% 0.0 mm
08:54 -2.3 °C -3.0 °C 993.1 hPa NE 6.9 km/h 6.9 km/h 97% 0.0 mm
08:59 -2.2 °C -3.0 °C 994.1 hPa NE 4.7 km/h 8.7 km/h 98% 0.0 mm
09:04 -1.9 °C -3.0 °C 994.1 hPa NE 4.7 km/h 8.7 km/h 97% 0.0 mm
09:09 -1.6 °C -2.0 °C 994.1 hPa North 6.1 km/h 8.7 km/h 98% 0.0 mm
09:14 -1.3 °C -2.0 °C 993.1 hPa North 6.1 km/h 8.7 km/h 98% 0.0 mm
09:19 -1.1 °C -2.0 °C 993.1 hPa NE 4.7 km/h 8.7 km/h 98% 0.0 mm
09:24 -0.7 °C -1.0 °C 993.1 hPa NNE 6.1 km/h 8.7 km/h 98% 0.0 mm
09:29 -0.4 °C -1.0 °C 993.1 hPa ENE 2.6 km/h 8.7 km/h 98% 0.0 mm
09:34 -0.1 °C -1.0 °C 993.1 hPa NE 5.0 km/h 10.1 km/h 98% 0.0 mm
09:39 0.1 °C 0.0 °C 993.1 hPa NE 8.7 km/h 10.1 km/h 98% 0.0 mm
09:44 0.4 °C 1.0 °C 993.1 hPa East 6.4 km/h 9.3 km/h 98% 0.0 mm
09:49 0.6 °C 1.0 °C 993.1 hPa ENE 9.3 km/h 10.5 km/h 98% 0.0 mm
09:54 0.8 °C 1.0 °C 993.1 hPa NE 6.4 km/h 10.5 km/h 98% 0.0 mm
09:59 1.0 °C 1.0 °C 993.1 hPa NE 11.6 km/h 11.6 km/h 98% 0.0 mm
10:04 1.2 °C 1.0 °C 993.1 hPa NE 10.1 km/h 11.6 km/h 98% 0.0 mm
10:09 1.4 °C 1.0 °C 993.1 hPa ENE 9.3 km/h 11.6 km/h 98% 0.0 mm
10:15 1.6 °C 1.0 °C 993.1 hPa NE 10.5 km/h 11.6 km/h 97% 0.0 mm
10:20 1.8 °C 1.0 °C 993.1 hPa NE 9.0 km/h 11.6 km/h 96% 0.0 mm
10:25 2.0 °C 2.0 °C 993.1 hPa ENE 7.6 km/h 11.1 km/h 95% 0.0 mm
10:30 2.4 °C 2.0 °C 993.1 hPa ENE 7.6 km/h 10.5 km/h 95% 0.0 mm
10:35 2.8 °C 2.0 °C 993.1 hPa East 5.5 km/h 9.7 km/h 94% 0.0 mm
10:40 3.2 °C 3.0 °C 993.1 hPa ENE 6.4 km/h 10.5 km/h 93% 0.0 mm
10:45 3.4 °C 2.0 °C 993.1 hPa East 6.9 km/h 11.6 km/h 91% 0.0 mm
10:50 3.7 °C 2.0 °C 993.1 hPa ENE 6.9 km/h 11.6 km/h 89% 0.0 mm
10:55 3.9 °C 2.0 °C 993.1 hPa NE 10.1 km/h 10.1 km/h 88% 0.0 mm
11:01 4.1 °C 2.0 °C 993.1 hPa East 9.3 km/h 10.1 km/h 86% 0.0 mm
11:06 4.4 °C 2.0 °C 993.1 hPa ENE 10.1 km/h 11.6 km/h 84% 0.0 mm
11:11 4.7 °C 2.0 °C 993.1 hPa East 7.9 km/h 11.6 km/h 83% 0.0 mm
11:16 4.8 °C 2.0 °C 993.1 hPa ENE 11.9 km/h 12.2 km/h 81% 0.0 mm
11:21 5.0 °C 2.0 °C 993.1 hPa East 5.5 km/h 13.0 km/h 79% 0.0 mm
11:26 5.2 °C 2.0 °C 993.1 hPa NE 10.1 km/h 13.0 km/h 78% 0.0 mm
11:34 0.0 °C 2.0 °C 993.1 hPa Calm     0% 0.0 mm
11:39 5.8 °C 3.0 °C 993.1 hPa East 3.5 km/h 9.7 km/h 78% 0.0 mm
11:44 6.1 °C 2.0 °C 993.1 hPa Calm   10.1 km/h 76% 0.0 mm
11:50 6.3 °C 3.0 °C 993.1 hPa ESE 1.8 km/h 10.1 km/h 76% 0.0 mm
11:55 6.5 °C 3.0 °C 993.1 hPa East 6.4 km/h 10.1 km/h 75% 0.0 mm
12:00 6.6 °C 3.0 °C 993.1 hPa NE 8.7 km/h 10.1 km/h 74% 0.0 mm
12:05 6.7 °C 2.0 °C 993.1 hPa ENE 11.6 km/h 11.6 km/h 73% 0.0 mm
12:10 6.7 °C 2.0 °C 993.1 hPa NE 9.7 km/h 13.0 km/h 72% 0.0 mm
12:15 6.8 °C 2.0 °C 993.1 hPa ENE 7.9 km/h 13.0 km/h 73% 0.0 mm
12:20 7.1 °C 3.0 °C 993.1 hPa Calm   10.5 km/h 73% 0.0 mm
12:25 7.4 °C 3.0 °C 993.1 hPa ENE 5.0 km/h 10.5 km/h 72% 0.0 mm
12:30 7.7 °C 3.0 °C 993.1 hPa East 7.9 km/h 10.5 km/h 71% 0.0 mm
12:36 7.9 °C 3.0 °C 993.1 hPa ENE 9.0 km/h 11.9 km/h 70% 0.0 mm
12:41 8.1 °C 3.0 °C 993.1 hPa ESE 10.1 km/h 13.0 km/h 69% 0.0 mm
12:46 8.4 °C 3.0 °C 993.1 hPa East 11.9 km/h 13.0 km/h 67% 0.0 mm
12:51 8.5 °C 3.0 °C 993.1 hPa East 6.9 km/h 12.2 km/h 66% 0.0 mm
12:56 8.7 °C 3.0 °C 993.1 hPa ESE 1.8 km/h 12.2 km/h 64% 0.0 mm
13:01 8.8 °C 3.0 °C 993.1 hPa East 12.2 km/h 12.6 km/h 63% 0.0 mm
13:06 8.8 °C 3.0 °C 993.1 hPa ENE 10.1 km/h 12.6 km/h 63% 0.0 mm
13:11 9.0 °C 2.0 °C 993.1 hPa East 6.9 km/h 12.6 km/h 62% 0.0 mm
13:16 9.2 °C 3.0 °C 993.1 hPa SSE 6.1 km/h 10.8 km/h 62% 0.0 mm
13:21 9.3 °C 2.0 °C 993.1 hPa East 7.9 km/h 10.5 km/h 61% 0.0 mm
13:26 9.4 °C 2.0 °C 993.1 hPa ENE 5.5 km/h 12.6 km/h 60% 0.0 mm
13:31 9.5 °C 3.0 °C 992.1 hPa ESE 13.0 km/h 13.0 km/h 60% 0.0 mm
13:36 9.5 °C 2.0 °C 992.1 hPa East 9.3 km/h 13.7 km/h 58% 0.0 mm
13:41 9.1 °C 1.0 °C 992.1 hPa East 5.8 km/h 13.7 km/h 57% 0.0 mm
13:46 8.9 °C 1.0 °C 992.1 hPa ENE 10.8 km/h 12.6 km/h 58% 0.0 mm
13:51 9.0 °C 2.0 °C 992.1 hPa East 7.9 km/h 13.7 km/h 59% 0.0 mm
13:56 9.2 °C 2.0 °C 992.1 hPa Calm   13.7 km/h 59% 0.0 mm
14:01 9.3 °C 2.0 °C 993.1 hPa East 8.7 km/h 12.2 km/h 59% 0.0 mm
14:07 9.3 °C 2.0 °C 993.1 hPa East 10.5 km/h 12.6 km/h 59% 0.0 mm
14:11 9.1 °C 2.0 °C 993.1 hPa East 3.2 km/h 13.0 km/h 59% 0.0 mm
14:16 8.9 °C 2.0 °C 992.1 hPa East 10.1 km/h 13.0 km/h 59% 0.0 mm
14:21 8.8 °C 2.0 °C 992.1 hPa ENE 9.0 km/h 11.9 km/h 60% 0.0 mm
14:27 8.8 °C 2.0 °C 992.1 hPa ENE 6.4 km/h 11.6 km/h 60% 0.0 mm
14:32 8.7 °C 2.0 °C 992.1 hPa Calm   11.1 km/h 61% 0.0 mm
14:36 8.5 °C 2.0 °C 992.1 hPa East 6.1 km/h 10.5 km/h 61% 0.0 mm
14:42 8.4 °C 2.0 °C 992.1 hPa East 7.9 km/h 10.5 km/h 62% 0.0 mm
14:47 8.4 °C 2.0 °C 992.1 hPa NE 5.5 km/h 10.5 km/h 63% 0.0 mm
14:52 8.4 °C 2.0 °C 992.1 hPa East 9.0 km/h 9.7 km/h 63% 0.0 mm
14:57 8.3 °C 2.0 °C 992.1 hPa Calm   9.0 km/h 64% 0.0 mm
15:02 8.2 °C 2.0 °C 992.1 hPa East 6.4 km/h 9.0 km/h 64% 0.0 mm
15:07 8.2 °C 2.0 °C 992.1 hPa East 4.3 km/h 9.3 km/h 64% 0.0 mm
15:12 8.1 °C 2.0 °C 992.1 hPa East 5.5 km/h 9.3 km/h 65% 0.0 mm
15:17 8.0 °C 2.0 °C 993.1 hPa East 5.5 km/h 7.9 km/h 65% 0.0 mm
15:22 7.9 °C 2.0 °C 993.1 hPa Calm   6.9 km/h 66% 0.0 mm
15:27 7.9 °C 2.0 °C 993.1 hPa ENE 5.5 km/h 6.9 km/h 66% 0.0 mm
15:32 7.8 °C 2.0 °C 992.1 hPa ENE 4.0 km/h 7.6 km/h 66% 0.0 mm
15:37 7.8 °C 2.0 °C 992.1 hPa ENE 5.8 km/h 9.3 km/h 67% 0.0 mm
15:42 7.7 °C 2.0 °C 992.1 hPa NE 5.8 km/h 9.3 km/h 67% 0.0 mm
15:47 7.6 °C 2.0 °C 993.1 hPa NE 4.7 km/h 8.7 km/h 67% 0.0 mm
15:52 7.5 °C 2.0 °C 993.1 hPa NE 5.5 km/h 8.7 km/h 68% 0.0 mm
15:57 7.5 °C 2.0 °C 993.1 hPa NE 9.0 km/h 11.9 km/h 68% 0.0 mm
16:02 7.4 °C 2.0 °C 992.1 hPa NNE 5.8 km/h 11.9 km/h 68% 0.0 mm
16:07 7.4 °C 2.0 °C 992.1 hPa Calm   10.1 km/h 68% 0.0 mm
16:12 7.4 °C 2.0 °C 992.1 hPa ENE 5.8 km/h 10.1 km/h 68% 0.0 mm
16:18 7.4 °C 2.0 °C 993.1 hPa East 8.7 km/h 9.7 km/h 68% 0.0 mm
16:23 7.3 °C 2.0 °C 993.1 hPa East 6.9 km/h 11.6 km/h 68% 0.0 mm
16:28 7.1 °C 2.0 °C 993.1 hPa ENE 10.1 km/h 11.6 km/h 68% 0.0 mm
16:33 7.0 °C 2.0 °C 993.1 hPa East 4.7 km/h 10.1 km/h 68% 0.0 mm
16:38 6.9 °C 2.0 °C 993.1 hPa East 5.8 km/h 10.1 km/h 69% 0.0 mm
16:43 6.8 °C 1.0 °C 993.1 hPa ENE 6.1 km/h 9.3 km/h 69% 0.0 mm
16:48 6.7 °C 2.0 °C 993.1 hPa East 2.6 km/h 9.3 km/h 70% 0.0 mm
16:53 6.6 °C 2.0 °C 993.1 hPa East 5.5 km/h 7.9 km/h 70% 0.0 mm
16:58 6.6 °C 2.0 °C 993.1 hPa East 8.7 km/h 8.7 km/h 71% 0.0 mm
17:03 6.4 °C 2.0 °C 993.1 hPa NE 3.2 km/h 9.0 km/h 71% 0.0 mm
17:08 6.3 °C 2.0 °C 993.1 hPa Calm   9.0 km/h 72% 0.0 mm
17:13 6.2 °C 2.0 °C 993.1 hPa East 4.3 km/h 9.0 km/h 73% 0.0 mm
18:19 0.0 °C 2.0 °C 0.0 hPa Calm     0% 0.0 mm
18:24 5.4 °C 2.0 °C 993.1 hPa Calm   5.0 km/h 78% 0.0 mm
18:29 5.3 °C 2.0 °C 993.1 hPa Calm   5.0 km/h 79% 0.0 mm
18:34 5.3 °C 2.0 °C 993.1 hPa Calm   6.9 km/h 79% 0.0 mm
18:39 5.4 °C 2.0 °C 993.1 hPa SSE 5.0 km/h 6.9 km/h 79% 0.0 mm
18:44 5.3 °C 2.0 °C 992.1 hPa SSE 7.6 km/h 10.8 km/h 79% 0.0 mm
18:49 5.2 °C 2.0 °C 992.1 hPa SSE 11.6 km/h 11.6 km/h 78% 0.0 mm
18:54 5.1 °C 2.0 °C 992.1 hPa Calm   14.0 km/h 78% 0.0 mm
18:59 5.0 °C 2.0 °C 992.1 hPa Calm   14.0 km/h 78% 0.0 mm
19:04 4.8 °C 1.0 °C 993.1 hPa Calm   7.9 km/h 78% 0.0 mm
19:09 4.8 °C 1.0 °C 993.1 hPa Calm   9.3 km/h 78% 0.0 mm
19:14 4.6 °C 1.0 °C 993.1 hPa Calm   9.3 km/h 78% 0.0 mm
19:19 4.5 °C 1.0 °C 993.1 hPa SE 4.0 km/h 4.0 km/h 78% 0.0 mm
19:24 4.4 °C 1.0 °C 993.1 hPa SE 1.4 km/h 4.3 km/h 78% 0.0 mm
19:29 4.3 °C 1.0 °C 993.1 hPa SSE 9.3 km/h 9.3 km/h 78% 0.0 mm
19:34 4.3 °C 1.0 °C 992.1 hPa SE 4.3 km/h 9.3 km/h 79% 0.0 mm
19:39 4.2 °C 1.0 °C 992.1 hPa Calm   9.3 km/h 79% 0.0 mm
19:44 4.1 °C 1.0 °C 993.1 hPa SSE 4.0 km/h 9.3 km/h 79% 0.0 mm
19:50 4.0 °C 1.0 °C 993.1 hPa ESE 6.1 km/h 6.9 km/h 79% 0.0 mm
19:55 3.9 °C 1.0 °C 993.1 hPa East 4.0 km/h 6.9 km/h 79% 0.0 mm
20:00 3.7 °C 1.0 °C 993.1 hPa ESE 4.0 km/h 10.1 km/h 79% 0.0 mm
20:05 3.5 °C 1.0 °C 993.1 hPa Calm   10.1 km/h 80% 0.0 mm
20:10 3.3 °C 1.0 °C 993.1 hPa Calm   8.7 km/h 80% 0.0 mm
20:15 3.1 °C 0.0 °C 993.1 hPa Calm   5.0 km/h 80% 0.0 mm
20:20 3.0 °C 0.0 °C 993.1 hPa ESE 1.8 km/h 6.4 km/h 80% 0.0 mm
20:25 3.0 °C 1.0 °C 993.1 hPa SE 6.1 km/h 10.1 km/h 83% 0.0 mm
20:30 3.1 °C 1.0 °C 993.1 hPa SSE 9.7 km/h 10.8 km/h 85% 0.0 mm
20:35 3.3 °C 1.0 °C 993.1 hPa South 9.3 km/h 12.6 km/h 86% 0.0 mm
20:40 3.3 °C 1.0 °C 993.1 hPa SE 7.9 km/h 12.6 km/h 86% 0.0 mm
20:45 3.4 °C 1.0 °C 993.1 hPa Calm   10.5 km/h 86% 0.0 mm
20:50 3.6 °C 2.0 °C 993.1 hPa ESE 6.4 km/h 11.6 km/h 86% 0.0 mm
20:55 3.6 °C 2.0 °C 993.1 hPa SE 9.0 km/h 11.6 km/h 86% 0.0 mm
21:00 3.7 °C 2.0 °C 993.1 hPa Calm   12.2 km/h 86% 0.0 mm
21:05 3.7 °C 2.0 °C 993.1 hPa South 9.3 km/h 12.2 km/h 86% 0.0 mm
21:10 3.8 °C 2.0 °C 993.1 hPa SE 5.0 km/h 10.1 km/h 86% 0.0 mm
21:15 3.8 °C 2.0 °C 993.1 hPa SE 14.0 km/h 14.0 km/h 86% 0.0 mm
21:20 3.8 °C 2.0 °C 993.1 hPa SE 8.7 km/h 14.0 km/h 86% 0.0 mm
21:26 3.8 °C 2.0 °C 993.1 hPa SSE 6.4 km/h 13.0 km/h 86% 0.0 mm
21:31 3.8 °C 2.0 °C 993.1 hPa SSE 6.1 km/h 14.0 km/h 86% 0.0 mm
21:36 3.8 °C 2.0 °C 993.1 hPa SSE 9.0 km/h 14.0 km/h 85% 0.0 mm
21:41 3.7 °C 2.0 °C 993.1 hPa SE 10.5 km/h 14.0 km/h 85% 0.0 mm
21:46 3.7 °C 2.0 °C 993.1 hPa Calm   11.9 km/h 85% 0.0 mm
21:51 3.7 °C 2.0 °C 993.1 hPa Calm   11.9 km/h 85% 0.0 mm
21:56 3.7 °C 2.0 °C 993.1 hPa SSE 4.3 km/h 9.3 km/h 85% 0.0 mm
22:01 3.7 °C 2.0 °C 993.1 hPa Calm   9.3 km/h 85% 0.0 mm
22:06 3.6 °C 2.0 °C 993.1 hPa SE 10.1 km/h 10.5 km/h 85% 0.0 mm
22:11 3.6 °C 2.0 °C 993.1 hPa SE 6.4 km/h 10.5 km/h 85% 0.0 mm
22:16 3.6 °C 2.0 °C 993.1 hPa Calm   10.5 km/h 85% 0.0 mm
22:21 3.6 °C 2.0 °C 993.1 hPa Calm   11.6 km/h 85% 0.0 mm
22:26 3.5 °C 2.0 °C 993.1 hPa SE 5.0 km/h 11.6 km/h 85% 0.0 mm
22:31 3.4 °C 1.0 °C 993.1 hPa SE 6.4 km/h 8.7 km/h 85% 0.0 mm
22:36 3.4 °C 1.0 °C 993.1 hPa SE 4.7 km/h 9.3 km/h 85% 0.0 mm
22:42 3.4 °C 1.0 °C 993.1 hPa Calm   9.3 km/h 85% 0.0 mm
22:47 3.3 °C 1.0 °C 993.1 hPa SE 8.7 km/h 9.7 km/h 85% 0.0 mm
22:52 3.3 °C 1.0 °C 993.1 hPa Calm   9.7 km/h 85% 0.0 mm
22:57 3.2 °C 1.0 °C 993.1 hPa ESE 10.1 km/h 10.1 km/h 85% 0.0 mm
23:02 3.1 °C 1.0 °C 993.1 hPa SE 2.1 km/h 10.1 km/h 85% 0.0 mm
23:19 0.0 °C 1.0 °C 0.0 hPa SE 7.6 km/h 7.6 km/h 0% 0.0 mm
23:24 2.6 °C 1.0 °C 994.1 hPa SE 3.2 km/h 8.7 km/h 86% 0.0 mm
23:29 2.6 °C 1.0 °C 994.1 hPa ESE 8.7 km/h 11.6 km/h 86% 0.0 mm
23:34 2.6 °C 1.0 °C 994.1 hPa SSE 4.3 km/h 11.6 km/h 87% 0.0 mm
23:39 2.6 °C 1.0 °C 994.1 hPa Calm   10.1 km/h 88% 0.0 mm
23:44 2.5 °C 1.0 °C 994.1 hPa SE 4.3 km/h 10.5 km/h 88% 0.0 mm
23:49 2.6 °C 1.0 °C 994.1 hPa SSE 7.9 km/h 10.5 km/h 89% 0.0 mm
23:54 2.6 °C 1.0 °C 994.1 hPa Calm   9.7 km/h 89% 0.0 mm
23:59 2.6 °C 1.0 °C 994.1 hPa Calm   10.1 km/h 89% 0.0 mm
Données Historique de Météo Turbie

Mise a jour : 18/06/2018 07:39:13
Généré par Cumulus 1.9.4 (1099)